Location: Killam
(52.7910°N, 111.8608°W)
Time: 00:17:29
(UTC+00:00)

A-11 Canister half - Pass Details

Date: 20 February 2026
Orbit: 1525 x 1683 km, 47.3° (Epoch: 9 March)

Event Time Altitude Azimuth Distance (km) Brightness Sun altitude
Rises 22:10:36 0° 202° (SSW) 4,742 13.0 19.0°
Reaches altitude 10° 22:14:17 10° 191° (S) 3,738 12.3 18.6°
Maximum altitude 22:21:42 27° 138° (SE) 2,611 10.5 17.9°
Drops below altitude 10° 22:29:01 10° 86° (E) 3,696 10.6 17.1°
Sets 22:32:36 0° 75° (ENE) 4,679 11.0 16.8°
